User: anonymous   Login
Location: Luz Observatory
(34.5000°N, 117.2833°W)
Time: 13:59:12
(UTC-07:00)
Language:

Okean 3 Rocket - Orbit

View from above orbital plane
View from above orbital plane
View from above satellite
View from above satellite

Ground track
Ground track

The orbit data is extracted from the following two-line orbital elements,

1 21398U 91039B   17113.92143650 +.00000167 +00000-0 +19121-4 0  9990
2 21398 082.5207 276.6961 0021520 004.8091 155.9871 14.79659698374844
Epoch (UTC): 23 April 2017 22:06:52
Eccentricity: 0.0021520
inclination: 82.5207°
perigee height: 615 km
apogee height: 645 km
right ascension of ascending node: 276.6961°
argument of perigee: 4.8091°
revolutions per day: 14.79659698
mean anomaly at epoch: 155.9871°
orbit number at epoch: 37484

The dashed part of the orbit path shows where the satellite is in the earth's shadow,  

DLR